Location: Baller�as
(41.9020°N, 0.1554°W)
Time: 01:02:04
(UTC+00:00)

Cosmos 540 Rocket - Pass Details

Date: 10 August 2020
Orbit: 740 x 754 km, 74.1° (Epoch: 22 September)

Event Time Altitude Azimuth Distance (km) Brightness Sun altitude
Rises 21:50:24 0° 346° (NNW) 3,210 7.8 -24.9°
Reaches altitude 10° 21:52:54 10° 353° (N) 2,283 6.7 -25.2°
Enters shadow 21:57:46 42° 63° (ENE) 1,061 4.1 -25.7°
